Flag for New Zealand Weather past 2 weeks in Hamilton, New Zealand

Now
52 °F

Cool.


Feels Like: 48 °F
Forecast: 31 / 53 °F
Wind: 12 mph from Southwest

Location: Auckland Airport

Current Time: Jul 30, 2015 at 5:13:48 PM

Latest Report: Jul 30, 2015 at 4:30 PM


Visibility: N/A

Pressure: 30.24 "Hg

Humidity: 62%

Dew point: 39 °F

Location of HamiltonLocation

Historic Weather in Hamilton — Graph

°F

Hamilton temperature yesterday

Maximum temperature yesterday: 55 °F (at 9:30 AM)
Minimum temperature yesterday: 50 °F (at 12:00 AM)
Average temperature yesterday: 52 °F

Past Weeks' High & Low Weather Summary

 TemperatureHumidityPressure
High61 °F (Jul 18, 3:00 PM)100% (Jul 15, 4:00 PM)30.60 "Hg (Jul 15, 4:00 PM)
Low39 °F (Jul 21, 8:00 AM)51% (Jul 30, 12:00 PM)29.18 "Hg (Jul 18, 6:00 PM)
Average52 °F86%30.10 "Hg
* Reported Jul 15 4:00 PM — Jul 30 4:00 PM, Hamilton, Weather by CustomWeather, © 2015

Note: Actual official high and low records may vary slightly from our data, if they occured in-between our weather recording intervals... More about our weather records

Advertising

Hamilton weather history for previous 24 hours

 ConditionsComfort  
Time TempWeatherWind HumidityBarometerVisibility
4:00 PM
Thu, Jul 30
54 °FCool.12 mph63%30.24 "HgN/A
3:30 PM54 °FCool.10 mph58%30.24 "HgN/A
3:00 PM54 °FCool.12 mph58%30.21 "HgN/A
2:30 PM54 °FCool.12 mph54%30.21 "HgN/A
2:00 PM54 °FCool.10 mph58%30.24 "HgN/A
1:30 PM54 °FCool.9 mph54%30.24 "HgN/A
1:00 PM54 °FCool.9 mph54%30.24 "HgN/A
12:30 PM54 °FCool.9 mph54%30.24 "HgN/A
12:00 PM54 °FCool.10 mph51%30.27 "HgN/A
11:30 AM54 °FCool.10 mph54%30.27 "HgN/A
11:00 AM52 °FCool.10 mph54%30.27 "HgN/A
10:30 AM50 °FCool.8 mph58%30.27 "HgN/A
9:30 AM48 °FCool.5 mph66%30.24 "HgN/A
9:00 AM46 °FCool.7 mph66%30.24 "HgN/A
8:30 AM45 °FQuite cool.2 mph76%30.24 "HgN/A
8:00 AM43 °FQuite cool.3 mph76%30.24 "HgN/A
7:30 AM41 °FPassing clouds.6 mph81%30.24 "HgN/A
7:00 AM43 °FPassing clouds.6 mph76%30.21 "HgN/A
6:30 AM43 °FScattered clouds.2 mph76%30.21 "HgN/A
6:00 AM45 °FQuite cool.2 mph71%30.18 "HgN/A
5:30 AM43 °FQuite cool.3 mph81%30.18 "HgN/A
5:00 AM43 °FQuite cool.2 mph81%30.18 "HgN/A
4:30 AM43 °FQuite cool.1 mph81%30.15 "HgN/A
4:00 AM43 °FQuite cool.No wind81%30.15 "HgN/A
3:30 AM43 °FQuite cool.6 mph87%30.15 "HgN/A
3:00 AM45 °FQuite cool.6 mph81%30.15 "HgN/A
2:30 AM46 °FCool.10 mph82%30.15 "HgN/A
2:00 AM48 °FCool.10 mph76%30.12 "HgN/A
1:30 AM48 °FCool.12 mph76%30.12 "HgN/A
1:00 AM48 °FCool.9 mph82%30.12 "HgN/A
12:30 AM48 °FCool.7 mph87%30.09 "HgN/A
12:00 AM48 °FCool.8 mph87%30.09 "HgN/A
11:30 PM
Wed, Jul 29
50 °FCool.8 mph82%30.09 "HgN/A
11:00 PM50 °FCool.7 mph88%30.07 "HgN/A
10:30 PM50 °FCool.7 mph88%30.07 "HgN/A
10:00 PM50 °FCool.7 mph88%30.07 "HgN/A
9:30 PM50 °FCool.8 mph82%30.04 "HgN/A
9:00 PM50 °FPassing clouds.9 mph82%30.04 "HgN/A
8:30 PM52 °FCool.10 mph82%30.04 "HgN/A
8:00 PM52 °FCool.10 mph82%30.01 "HgN/A
7:30 PM52 °FCool.14 mph82%30.01 "HgN/A
7:00 PM52 °FCool.16 mph77%29.98 "HgN/A
6:30 PM52 °FCool.15 mph77%29.98 "HgN/A
6:00 PM52 °FCool.17 mph82%29.95 "HgN/A
5:30 PM52 °FPassing clouds.18 mph82%29.95 "HgN/A
5:00 PM54 °FPartly cloudy.18 mph77%29.92 "HgN/A
Weather by CustomWeather, © 2015

See weather overviewHow to use our weather pages